Location: Cañada de la Miga
(34.7595°N, 106.2317°W)
Time: 09:53:18
(UTC+00:00)

Transit 4A - Pass Details

Date: 07 December 2021
Orbit: 864 x 980 km, 66.8° (Epoch: 16 January)

Event Time Altitude Azimuth Distance (km) Brightness Sun altitude
Rises 01:28:00 0° 210° (SSW) 3,436 11.6 -18.9°
Reaches altitude 10° 01:30:27 10° 212° (SSW) 2,510 10.8 -19.4°
Maximum altitude 01:36:15 74° 297° (WNW) 920 7.9 -20.5°
Enters shadow 01:40:25 21° 20° (NNE) 1,930 9.2 -21.4°
